Location: Borea
(45.6167°N, 23.0167°E)
Time: 10:13:17
(UTC+00:00)

Cosmos 1892 - Pass Details

Date: 03 February 2023
Orbit: 487 x 506 km, 82.5° (Epoch: 20 March)

Event Time Altitude Azimuth Distance (km) Brightness Sun altitude
Rises 16:30:07 0° 181° (S) 2,568 6.4 -9.7°
Reaches altitude 10° 16:32:13 10° 179° (S) 1,695 5.5 -10.1°
Maximum altitude 16:35:54 69° 97° (E) 541 2.6 -10.7°
Drops below altitude 10° 16:39:40 10° 14° (NNE) 1,725 5.1 -11.3°
Sets 16:41:48 0° 12° (NNE) 2,620 6.0 -11.7°
